User: anonymous   Login
Location: Unspecified
(0.0000°N, 0.0000°E)
Time: 06:51:02
(UTC+02:00)
Language:

Cosmos 1315 Rocket - Orbit

View from above orbital plane
View from above orbital plane
View from above satellite
View from above satellite

Ground track
Ground track

The orbit data is extracted from the following two-line orbital elements,

1 12904U 81103B   15115.48344226  .00003496  00000-0  24903-3 0  9998
2 12904 081.1769 089.9451 0030171 121.0029 239.4163 15.03991047374969
Epoch (UTC): 25 April 2015 11:36:09
Eccentricity: 0.0030171
inclination: 81.1769°
perigee height: 533 km
apogee height: 575 km
right ascension of ascending node: 89.9451°
argument of perigee: 121.0029°
revolutions per day: 15.03991047
mean anomaly at epoch: 239.4163°
orbit number at epoch: 37496

The dashed part of the orbit path shows where the satellite is in the earth's shadow,  

DLR